Other Public Products
Issued by NWS Charleston, SC

Current Version | Previous Version | Graphics & Text | Print | Product List | Glossary On
Versions: 1 2 3 4 5 6 7 8 9 10 11 12 13 14 15 16 17 18 19 20 21 22 23 24 25 26 27 28 29 30 31 32 33 34 35 36 37 38 39 40 41 42 43 44 45 46 47 48 49 50
700 FPUS82 KCHS 281312 OPUCHS TEST...KCHS/KSAV Gateway Observations...TEST National Weather Service Charleston SC 900 AM EDT FRI APR 28 2017 NOTE: "fair" indicates few or no clouds below 12,000 feet with no significant weather and/or obstructions to visibility. SCZ050-WAZ558-NCZ071-TXZ119-213-PAZ071-DCZ001-FLZ074-172-MI076- NYZ176-178-MAZ016-IL014-TNZ027-NJZ106-GAZ044-MD014-281400- ...Gateway Observations for Charleston International... CITY SKY/WX TMP DP RH WIND PRES REMARKS Chas Airport MOSUNNY 77 72 84 S9 30.07R Seattle CLOUDY 43 41 93 SW5 30.29R Charlotte PTSUNNY 72 66 81 CALM 30.06R Dallas DFW CLOUDY 71 65 81 S16 29.56R Dallas Love CLOUDY 71 64 78 S17 29.58R Philladelphia MOSUNNY 71 63 75 S7 29.99R Wash National MOSUNNY 70 64 81 SE5 30.03R Baltimore MOSUNNY 72 63 73 W6 30.01R Miami MOSUNNY 83 73 72 E13 30.06R Detroit CLOUDY 51 40 65 S9 29.99R Newark PTSUNNY 63 61 93 SW3 29.97R FOG Laguardia PTSUNNY 62 58 86 NE5 29.97R FOG J F K MOSUNNY 63 59 87 CALM 29.98R FOG Boston Logan CLOUDY 60 59 96 S7 29.95F Ft. Lauderdale MOSUNNY 81 73 76 SE13 30.05R Chicago O`Hare CLOUDY 44 32 62 CALM 29.93S Chicago Midway MOSUNNY 48 38 68 N3 29.94F Houston Bush PTSUNNY 78 72 81 S15 29.67R HAZE Houston Hobby PTSUNNY 77 73 87 S10 29.67R Nashville PTSUNNY 59 54 83 SE5 29.92F Atlanta CLOUDY 71 69 93 S7 30.02R FOG $$ GAZ044-118-TXZ119-213-NCZ071-DCZ001-MDZ014-506-PAZ021-071-NJZ106- NYZ176-178-MAZ106-OHZ011-021-055-MIZ076-KYZ091-ILZ014-INZ047- MNZ060-ONZ431-281400- ...Gateway Observations for Savannah International... CITY SKY/WX TMP DP RH WIND PRES REMARKS Savannah Arpt MOSUNNY 77 69 76 S3 30.06R Atlanta CLOUDY 71 69 93 S7 30.02R FOG Charlotte PTSUNNY 72 66 81 CALM 30.06R Dallas DFW CLOUDY 71 65 81 S16 29.56R Houston Bush PTSUNNY 78 72 81 S15 29.67R HAZE Wash National MOSUNNY 70 64 81 SE5 30.03R Wash Dulles MOSUNNY 71 59 65 NW7 30.03R Baltimore MOSUNNY 72 63 73 W6 30.01R Philadelphia MOSUNNY 71 63 75 S7 29.99R Newark PTSUNNY 63 61 93 SW3 29.97R FOG Laguardia PTSUNNY 62 58 86 NE5 29.97R FOG J F K MOSUNNY 63 59 87 CALM 29.98R FOG Boston CLOUDY 60 59 96 S7 29.95F Pittsburg MOSUNNY 55 50 83 CALM 30.06R Akron PTSUNNY 53 43 68 W7 30.05R Cleveland PTSUNNY 52 40 63 S8 30.04R Cincinnati CLOUDY 52 47 83 SE12 30.02F Columbus MOSUNNY 53 48 85 SE6 30.05R Detroit CLOUDY 51 40 65 S9 29.99R Chicago O`Hare CLOUDY 44 32 62 CALM 29.93S Minneapolis MOSUNNY 38 25 59 N13 29.89R WCI 30 Indianapolis CLOUDY 50 45 83 SE9 29.99R Toronto Canada MOSUNNY 54 39 58 SW13G20 29.97R $$

USA.gov is the U.S. government's official web portal to all federal, state and local government web resources and services.